User: anonymous   Login
Location: *
(45.8589°N, 4.7139°E)
Time: 00:44:15
(UTC+00:00)
Language:

Cosmos 1605 Rocket - Orbit

View from above orbital plane
View from above orbital plane
View from above satellite
View from above satellite

Ground track
Ground track

The orbit data is extracted from the following two-line orbital elements,

1 15360U 84109B   20188.55668865 +.00000036 +00000-0 +20374-4 0  9994
2 15360 082.9408 299.9847 0041595 172.2282 187.9529 13.76775245794798
Epoch (UTC): 06 July 2020 13:21:37
Eccentricity: 0.0041595
inclination: 82.9408°
perigee height: 945 km
apogee height: 1006 km
right ascension of ascending node: 299.9847°
argument of perigee: 172.2282°
revolutions per day: 13.76775245
mean anomaly at epoch: 187.9529°
orbit number at epoch: 79479

The dashed part of the orbit path shows where the satellite is in the earth's shadow,  

DLR